Regional Weather Roundup
Issued by NWS

Home | Current Version | Previous Version | Text Only | Print | Product List | Glossary On
Versions: 1 2 3 4 5 6 7 8 9 10 11 12 13 14 15 16 17 18 19 20 21 22 23 24 25 26 27 28 29 30 31 32 33 34 35 36 37 38 39 40 41 42 43 44 45 46 47 48 49 50
000
ASUS43 KTOP 170808
RWRKS

WEATHER ROUNDUP FOR KANSAS
NATIONAL WEATHER SERVICE GOODLAND KS
300 AM CDT THU AUG 17 2017

NOTE:  "FAIR" INDICATES FEW OR NO CLOUDS BELOW 12,000 FEET WITH NO
SIGNIFICANT WEATHER AND/OR OBSTRUCTIONS TO VISIBILITY.

KSZ001>006-013>018-027>032-041>047-170900-
NORTHWEST KANSAS

CITY           SKY/WX    TMP DP  RH WIND       PRES   REMARKS
GOODLAND       CLEAR     55  53  93 SW5       30.10S
HAYS           CLEAR     60  59  96 W7        30.00F
HILL CITY      CLEAR     59  58  96 W6        30.01F
RUSSELL        CLEAR     61  59  93 W7        29.97S
$$

KSZ061>065-074>080-084>089-170900-
SOUTHWEST KANSAS

CITY           SKY/WX    TMP DP  RH WIND       PRES   REMARKS
DODGE CITY     CLEAR     60  57  89 SW3       30.05R
ELKHART          N/A     62  56  81 N5          N/A
GARDEN CITY    CLEAR     61  57  87 CALM      30.06F
GREAT BEND     CLEAR     62  60  93 W6        30.00R
LIBERAL        CLEAR     66  59  78 NE8       30.06F
PRATT          CLEAR     64  59  86 NW7       30.01R
$$

KSZ066>073-081>083-090>101-170900-
SOUTHEAST KANSAS

CITY           SKY/WX    TMP DP  RH WIND       PRES   REMARKS
CHANUTE        CLOUDY    68  67  96 SW5       29.90S
COFFEYVILLE    CLOUDY    69  67  93 SW6       29.91R
HUTCHINSON     CLEAR     65  62  90 NW7       29.96R
MEDICINE LODGE   N/A     66  62  87 N6        29.98R
NEWTON         CLOUDY    66  63  90 N7        29.95R
PARSONS        CLOUDY    68  67  96 CALM      29.91R
WICHITA INTL   CLOUDY    69  66  90 NW7       29.95R
WICHITA JABRA  CLOUDY    70  69  97 W10       29.94R
WICHITA MCCONL CLOUDY    71  67  89 W8        29.95R
WINFIELD       FOG       68  68 100 W3        29.94R VSB 3/4
$$

KSZ007>012-019>026-033>040-048>060-102>105-170900-
NORTHEAST KANSAS

CITY           SKY/WX    TMP DP  RH WIND       PRES   REMARKS
CONCORDIA      CLEAR     63  63 100 W8        29.93S
EMPORIA        CLOUDY    68  66  93 W6        29.91R
LAWRENCE       CLOUDY    69  69 100 CALM      29.86F
MANHATTAN      CLEAR     65  64  97 W6        29.91R
MARYSVILLE     CLEAR     63  63 100 W3        29.90S
OLATHE IND     CLOUDY    68  67  96 SW7       29.88R
OLATHE EXE     CLOUDY    67  67 100 SW5       29.88R
SALINA         CLEAR     68  63  84 NW7       29.94R
TOPEKA BILLARD CLOUDY    69  68  96 W6        29.87S
TOPEKA FORBES  CLOUDY    69  66  90 W7        29.88S
$$




USA.gov is the U.S. government's official web portal to all federal, state and local government web resources and services.